[[{"header":{"parameterUnit":"m.s-1","parameterCategory":1,"la1":30.2991,"la2":30.254,"lo1":-89.0895,"lo2":-89.0444,"dy":0.0017,"dx":0.0017,"nx":28,"ny":28,"refTime":"2025-04-13T09:00:00:Z","depth":0,"parameterNumber":2,"parameterNumberName":"U-component_of_WINDS"},"data":[0,0,0,0,0,0,0,0,0,0,0,0,0,0,0,0,0,0,0,0,0,0,0,0,0,0,0,0,0,0,0,0,0,0,0,0,0,0,0,0,0,0,0,0,0,0,0,0,0,0,0,0,0,0,0,0,0,0,-1.8495,-1.8496,0,-1.855,-1.8551,-1.8551,-1.8517,-1.8516,-1.8514,-1.8512,-1.8569,-1.8572,-1.8575,0,0,0,0,0,0,0,0,0,0,0,0,0,-1.836,-1.8363,-1.8495,-1.8496,-1.8496,-1.855,-1.8551,-1.8551,-1.8518,-1.8516,-1.8514,-1.8512,-1.8568,-1.8571,-1.8575,0,0,0,0,0,0,0,0,0,0,0,0,0,-1.8417,-1.8363,-1.8495,-1.8486,-1.8486,-1.855,-1.8551,-1.8552,-1.8518,-1.8516,-1.8513,-1.8511,-1.8567,-1.8571,-1.8575,-1.8652,0,0,-1.8589,-1.8591,0,0,0,0,0,0,0,0,-1.8414,-1.8422,-1.8486,-1.8487,-1.8486,-1.8524,-1.8524,-1.8585,-1.8519,-1.8506,-1.8512,-1.851,-1.8556,-1.8561,-1.8577,-1.8654,-1.8657,-1.859,-1.8592,-1.8594,-1.8595,0,0,0,0,0,0,0,-1.841,-1.842,-1.8517,-1.8487,-1.8487,-1.8479,-1.8484,-1.8535,-1.8544,-1.8507,-1.8504,-1.8511,-1.8555,-1.8573,-1.8578,-1.8657,-1.8589,-1.8593,-1.8596,-1.8598,-1.88,-1.8803,0,0,0,0,0,0,-1.8407,-1.8417,-1.8515,-1.8518,-1.8443,-1.8483,-1.8489,-1.8515,-1.8543,-1.8545,-1.8513,-1.8509,-1.8566,-1.8573,-1.858,-1.8671,-1.8594,-1.8598,-1.8601,-1.8797,-1.8801,-1.8804,0,0,0,0,0,0,-1.8404,-1.8416,-1.8513,-1.8467,-1.8479,-1.8488,-1.8517,-1.8517,-1.8534,-1.8548,-1.8549,-1.8529,-1.8564,-1.8573,-1.8634,-1.8672,-1.86,-1.8605,-1.8794,-1.8798,-1.8802,-1.8853,0,0,0,0,0,0,-1.84,-1.8415,-1.8444,-1.8468,-1.8481,-1.8566,-1.8519,-1.852,-1.8542,-1.8537,-1.8563,-1.8565,-1.8563,-1.8627,-1.8638,-1.8677,-1.8608,-1.8791,-1.8796,-1.8801,-1.8848,-1.8859,-1.8868,0,0,0,0,0,-1.8396,-1.8456,-1.8446,-1.8458,-1.8518,-1.8569,-1.8576,-1.8572,-1.8545,-1.8574,-1.8583,-1.8564,-1.8666,-1.8634,-1.8646,-1.8687,-1.8788,-1.8795,-1.8801,-1.8844,-1.8857,-1.8867,0,0,0,0,0,0,-1.8437,-1.8459,-1.8448,-1.8518,-1.8542,-1.8563,-1.8599,-1.8586,-1.8618,-1.8612,-1.8606,-1.8612,-1.8676,-1.8687,-1.8651,-1.8762,-1.8723,-1.8732,-1.8752,-1.8764,-1.8774,-1.8769,-1.8612,0,0,0,0,0,-1.8454,-1.8494,-1.8511,-1.8571,-1.8584,-1.859,-1.8612,-1.8607,-1.8631,-1.8641,-1.8654,-1.8679,-1.8716,-1.8741,-1.8776,-1.885,-1.8855,-1.8884,-1.8893,-1.8901,-1.8909,-1.8949,-1.8962,-1.8823,-1.8823,-1.8823,0,0,-1.849,-1.8507,-1.8533,-1.858,-1.8598,-1.8639,-1.8598,-1.8643,-1.8674,-1.8648,-1.8706,-1.8717,-1.8743,-1.8811,-1.8841,-1.8822,-1.8948,-1.8909,-1.8915,-1.8918,-1.8956,-1.897,-1.8981,-1.8827,-1.8827,-1.8826,0,0,-1.8577,-1.8594,-1.8646,-1.8664,-1.8692,-1.8696,-1.8708,-1.8731,-1.8738,-1.8796,-1.8777,-1.8813,-1.8878,-1.8898,-1.8916,-1.9011,-1.8994,-1.9022,-1.9072,-1.9111,-1.9122,-1.9132,-1.9166,-1.9178,-1.903,-1.903,-1.903,0,-1.8618,-1.8679,-1.8674,-1.8721,-1.8742,-1.8721,-1.8774,-1.8792,-1.8829,-1.8845,-1.8823,-1.8904,-1.892,-1.8992,-1.9015,-1.9031,-1.9045,-1.9019,-1.9121,-1.9131,-1.914,-1.9172,-1.9185,-1.9033,-1.9033,-1.9032,-1.9032,0,-1.8728,-1.8771,-1.881,-1.8847,-1.8873,-1.8922,-1.8925,-1.8952,-1.8945,-1.8951,-1.901,-1.9029,-1.9068,-1.9085,-1.9078,-1.9156,-1.9144,-1.9122,-1.9083,-1.9156,-1.9186,-1.9199,-1.9038,-1.9036,-1.9036,-1.9035,0,0,-1.8842,-1.8876,-1.889,-1.8907,-1.8936,-1.8969,-1.9017,-1.9055,-1.9079,-1.9105,-1.9146,-1.9201,-1.9181,-1.9202,-1.9198,-1.9232,-1.9306,-1.9206,-1.9207,-1.9224,-1.9393,-1.9409,-1.9424,-1.9296,-1.9298,-1.93,-1.9391,0,-1.893,-1.9015,-1.9012,-1.9092,-1.9131,-1.9111,-1.9154,-1.9176,-1.9183,-1.9217,-1.9225,-1.9264,-1.9235,-1.9248,-1.9281,-1.929,-1.934,-1.9284,-1.9333,-1.9335,-1.9327,-1.9439,-1.9457,-1.9542,-1.9403,-1.9405,-1.9406,0,-1.9045,-1.9075,-1.9159,-1.9182,-1.9198,-1.9236,-1.9271,-1.9304,-1.9329,-1.9332,-1.9356,-1.9346,-1.9395,-1.9355,-1.9423,-1.9385,-1.9405,-1.9413,-1.9416,-1.942,-1.9375,-1.9447,-1.9569,-1.9582,-1.9425,-1.9423,-1.9422,0,-1.9119,-1.9182,-1.9239,-1.9254,-1.9283,-1.931,-1.9323,-1.9346,-1.9369,-1.9399,-1.9414,-1.945,-1.947,-1.9498,-1.9498,-1.9468,-1.9567,-1.9526,-1.957,-1.957,-1.9591,-1.959,-1.9718,-1.9605,-1.9605,-1.9604,-1.9604,0,-1.9218,-1.927,-1.9273,-1.9309,-1.9366,-1.9362,-1.9419,-1.943,-1.945,-1.9487,-1.9473,-1.9508,-1.9506,-1.9542,-1.9542,-1.9598,-1.9607,-1.9611,-1.961,-1.9612,-1.9612,-1.9625,-1.9619,-1.9608,-1.9607,-1.9606,-1.9606,0,-1.9311,-1.9315,-1.9377,-1.9399,-1.9406,-1.9447,-1.9466,-1.95,-1.9506,-1.9553,-1.9564,-1.9573,-1.9615,-1.9618,-1.9666,-1.9666,-1.9734,-1.9727,-1.9726,-1.9724,-1.9768,-1.9764,-1.9909,-1.9928,-1.9803,-1.9804,-1.9805,0,-1.9374,-1.9413,-1.9439,-1.9463,-1.9478,-1.9517,-1.9541,-1.9539,-1.9564,-1.9595,-1.9626,-1.9666,-1.9697,-1.9765,-1.9775,-1.9812,-1.9806,-1.9854,-1.9811,-1.9812,-1.9806,-1.9804,-1.9808,-1.9863,-1.9864,-1.9865,-1.9866,0,-1.9484,-1.9485,-1.9519,-1.9555,-1.9584,-1.9612,-1.9638,-1.9658,-1.9659,-1.9689,-1.9731,-1.9756,-1.9805,-1.9845,-1.988,-1.9894,-1.9881,-1.9879,-1.9892,-1.9894,-1.9891,-1.9893,-1.9748,-1.9876,-1.9875,-1.9874,-1.9874,-1.9873,-1.9564,-1.9598,-1.9622,-1.9661,-1.9681,-1.9706,-1.9739,-1.9749,-1.9784,-1.9824,-1.982,-1.9867,-1.9891,-1.9938,-1.9955,-1.9991,-1.9975,-1.9992,-1.9997,-2.0001,-2.0006,-1.9886,-1.9998,-1.9997,-1.9997,-1.9997,-1.9997,0,-1.9674,-1.9689,-1.9725,-1.9762,-1.9793,-1.9777,-1.9806,-1.9832,-1.9874,-1.9898,-1.9929,-1.9978,-2.0017,-2.0031,-2.0069,-2.0095,-2.009,-2.0105,-2.0103,-2.0107,-2.0018,-2.0004,-2.0109,-2.0109,-2.0109,-2.0109,-2.0109,-2.0109,-1.9735,-1.9792,-1.9795,-1.9861,-1.9876,-1.9921,-1.9939,-1.9962,-1.9981,-2.0036,-2.0068,-2.0077,-2.0097,-2.0136,-2.0171,-2.0174,-2.0189,-2.0207,-2.0207,-2.0124,-2.0113,-2.0102,-2.0089,-2.021,-2.021,-2.0293,-2.0294,-2.0294]},{"header":{"parameterUnit":"m.s-1","parameterCategory":1,"la1":30.2991,"la2":30.254,"lo1":-89.0895,"lo2":-89.0444,"dy":0.0017,"dx":0.0017,"nx":28,"ny":28,"refTime":"2025-04-13T09:00:00:Z","depth":0,"parameterNumber":3,"parameterNumberName":"V-component_of_WINDS"},"data":[0,0,0,0,0,0,0,0,0,0,0,0,0,0,0,0,0,0,0,0,0,0,0,0,0,0,0,0,0,0,0,0,0,0,0,0,0,0,0,0,0,0,0,0,0,0,0,0,0,0,0,0,0,0,0,0,0,0,-1.887,-1.8871,0,-1.8932,-1.8933,-1.8934,-1.8945,-1.8944,-1.8944,-1.8943,-1.9004,-1.9006,-1.9008,0,0,0,0,0,0,0,0,0,0,0,0,0,-1.8758,-1.876,-1.887,-1.8871,-1.8871,-1.8932,-1.8933,-1.8934,-1.8945,-1.8944,-1.8944,-1.8943,-1.9004,-1.9006,-1.9009,0,0,0,0,0,0,0,0,0,0,0,0,0,-1.8812,-1.8761,-1.887,-1.8884,-1.8886,-1.8932,-1.8933,-1.8934,-1.8945,-1.8944,-1.8943,-1.8943,-1.9003,-1.9006,-1.9009,-1.9044,0,0,-1.9019,-1.902,0,0,0,0,0,0,0,0,-1.8809,-1.8816,-1.8881,-1.8883,-1.8886,-1.893,-1.8916,-1.8971,-1.8945,-1.8923,-1.8943,-1.8942,-1.898,-1.8985,-1.8998,-1.9046,-1.9049,-1.9019,-1.9021,-1.9022,-1.9023,0,0,0,0,0,0,0,-1.8805,-1.8813,-1.8894,-1.8882,-1.8885,-1.8887,-1.8894,-1.8926,-1.8955,-1.8924,-1.8925,-1.8933,-1.8981,-1.8995,-1.9,-1.905,-1.9019,-1.9022,-1.9023,-1.9025,-1.9129,-1.913,0,0,0,0,0,0,-1.8799,-1.881,-1.8892,-1.8896,-1.8845,-1.889,-1.8897,-1.8916,-1.8954,-1.896,-1.8933,-1.8933,-1.899,-1.8996,-1.9002,-1.9045,-1.9022,-1.9025,-1.9027,-1.9128,-1.9129,-1.913,0,0,0,0,0,0,-1.8797,-1.8806,-1.889,-1.8854,-1.8864,-1.8892,-1.8914,-1.8918,-1.8932,-1.8961,-1.8966,-1.8943,-1.899,-1.8998,-1.9033,-1.9047,-1.9026,-1.9029,-1.9127,-1.9129,-1.913,-1.913,0,0,0,0,0,0,-1.8793,-1.8805,-1.8819,-1.8854,-1.8866,-1.8921,-1.8915,-1.892,-1.8938,-1.8938,-1.8971,-1.8976,-1.899,-1.9028,-1.9036,-1.9051,-1.9032,-1.9126,-1.9128,-1.9129,-1.9129,-1.9131,-1.9133,0,0,0,0,0,-1.8789,-1.8817,-1.882,-1.883,-1.8885,-1.8922,-1.8929,-1.8945,-1.8939,-1.8953,-1.8972,-1.8975,-1.9044,-1.9032,-1.9041,-1.9057,-1.9125,-1.9127,-1.9129,-1.9128,-1.9131,-1.9133,0,0,0,0,0,0,-1.8782,-1.8821,-1.8826,-1.8865,-1.889,-1.8924,-1.8942,-1.8947,-1.8974,-1.8973,-1.8991,-1.8998,-1.9033,-1.9048,-1.9034,-1.9092,-1.9084,-1.9088,-1.908,-1.9083,-1.9085,-1.908,-1.9034,0,0,0,0,0,-1.8785,-1.8813,-1.8845,-1.8877,-1.8889,-1.8913,-1.893,-1.894,-1.8967,-1.8977,-1.8998,-1.9023,-1.905,-1.9068,-1.9094,-1.9132,-1.9139,-1.9147,-1.9149,-1.915,-1.9153,-1.9173,-1.9177,-1.9137,-1.9137,-1.9137,0,0,-1.8791,-1.8816,-1.8833,-1.8876,-1.8897,-1.8924,-1.8922,-1.8951,-1.8972,-1.8981,-1.9016,-1.9033,-1.9061,-1.9098,-1.9115,-1.9112,-1.9166,-1.9153,-1.9154,-1.9156,-1.9176,-1.918,-1.9183,-1.9138,-1.9138,-1.9138,0,0,-1.8817,-1.8839,-1.8868,-1.8888,-1.892,-1.8936,-1.8943,-1.8976,-1.8987,-1.9023,-1.9031,-1.9055,-1.9101,-1.9121,-1.9138,-1.9171,-1.9175,-1.9179,-1.919,-1.9209,-1.9213,-1.9215,-1.9227,-1.923,-1.9182,-1.9182,-1.9182,0,-1.882,-1.8863,-1.8881,-1.891,-1.8929,-1.894,-1.8968,-1.8987,-1.9026,-1.9038,-1.9034,-1.9093,-1.9113,-1.9154,-1.9162,-1.9176,-1.9183,-1.9175,-1.9211,-1.9214,-1.9217,-1.9228,-1.9232,-1.9182,-1.9182,-1.9182,-1.9182,0,-1.8865,-1.8895,-1.8914,-1.8952,-1.8972,-1.9001,-1.9022,-1.9041,-1.905,-1.9066,-1.9101,-1.9126,-1.9158,-1.9169,-1.9177,-1.9211,-1.9208,-1.9207,-1.92,-1.9221,-1.9231,-1.9235,-1.9183,-1.9183,-1.9183,-1.9183,0,0,-1.8887,-1.8935,-1.8942,-1.8959,-1.8995,-1.9017,-1.9046,-1.9078,-1.9093,-1.9119,-1.9143,-1.9183,-1.9183,-1.9201,-1.9212,-1.9229,-1.9253,-1.9227,-1.9227,-1.923,-1.9291,-1.929,-1.9295,-1.9256,-1.9257,-1.9258,-1.9288,0,-1.8916,-1.8969,-1.8986,-1.9029,-1.9056,-1.9067,-1.9092,-1.9116,-1.9132,-1.9157,-1.9174,-1.9201,-1.9199,-1.9211,-1.9228,-1.9246,-1.9265,-1.9245,-1.9278,-1.9279,-1.9269,-1.93,-1.93,-1.9327,-1.9292,-1.9293,-1.9294,0,-1.8957,-1.8985,-1.9031,-1.9063,-1.9075,-1.9097,-1.9128,-1.9152,-1.9179,-1.9189,-1.921,-1.922,-1.9249,-1.9241,-1.9281,-1.9267,-1.9281,-1.9292,-1.9294,-1.9297,-1.9287,-1.9303,-1.9337,-1.934,-1.93,-1.93,-1.9299,0,-1.8967,-1.9016,-1.905,-1.9064,-1.9103,-1.9118,-1.9135,-1.9162,-1.918,-1.9206,-1.9218,-1.9247,-1.9263,-1.9285,-1.9302,-1.9295,-1.9341,-1.9334,-1.9349,-1.9349,-1.9357,-1.9357,-1.9393,-1.9369,-1.9368,-1.9368,-1.9368,0,-1.8997,-1.9025,-1.9055,-1.9075,-1.9106,-1.9126,-1.9156,-1.9173,-1.9197,-1.922,-1.9232,-1.9253,-1.9275,-1.9299,-1.9313,-1.9344,-1.9351,-1.9359,-1.9362,-1.9358,-1.9356,-1.9367,-1.9365,-1.9369,-1.9369,-1.9369,-1.9369,0,-1.9013,-1.9035,-1.9072,-1.9106,-1.9115,-1.9137,-1.9165,-1.9185,-1.9202,-1.9232,-1.924,-1.9265,-1.9294,-1.9314,-1.9351,-1.936,-1.9393,-1.9396,-1.9384,-1.9386,-1.9399,-1.9397,-1.9442,-1.9449,-1.9421,-1.9421,-1.9422,0,-1.903,-1.9052,-1.9089,-1.9106,-1.9123,-1.915,-1.9169,-1.9189,-1.9207,-1.9241,-1.9256,-1.9287,-1.9312,-1.9358,-1.9379,-1.9407,-1.9411,-1.9424,-1.9415,-1.9409,-1.941,-1.9408,-1.941,-1.9426,-1.9426,-1.9426,-1.9426,0,-1.9058,-1.9068,-1.9095,-1.9126,-1.9148,-1.9173,-1.9198,-1.9211,-1.9235,-1.9256,-1.9286,-1.9306,-1.9344,-1.9374,-1.9404,-1.942,-1.9427,-1.9429,-1.9434,-1.9429,-1.9421,-1.9425,-1.9387,-1.9428,-1.9428,-1.9427,-1.9427,-1.9427,-1.9075,-1.9095,-1.9124,-1.9153,-1.9174,-1.9197,-1.9218,-1.9237,-1.9263,-1.9297,-1.9307,-1.9338,-1.9365,-1.9407,-1.9423,-1.9448,-1.9446,-1.9453,-1.9455,-1.9456,-1.9456,-1.9418,-1.9453,-1.9453,-1.9453,-1.9453,-1.9453,0,-1.9103,-1.9122,-1.9149,-1.9184,-1.9208,-1.9213,-1.9241,-1.926,-1.9288,-1.9312,-1.9337,-1.9372,-1.9401,-1.9425,-1.9454,-1.9469,-1.9473,-1.9476,-1.9474,-1.9478,-1.9456,-1.9448,-1.9472,-1.9472,-1.9472,-1.9472,-1.9472,-1.9472,-1.912,-1.9153,-1.9166,-1.921,-1.9229,-1.9261,-1.9276,-1.9297,-1.9317,-1.9356,-1.938,-1.9396,-1.942,-1.9451,-1.9478,-1.9484,-1.9494,-1.9496,-1.9503,-1.9482,-1.9479,-1.9477,-1.947,-1.9498,-1.9498,-1.9523,-1.9523,-1.9523]}]]